Location: Betz
(49.1556°N, 2.9558°E)
Time: 01:02:05
(UTC+00:00)

CZ-4C R/B - Pass Details

Date: 18 September 2019
Orbit: 654 x 1348 km, 63.4° (Epoch: 12 October)

Event Time Altitude Azimuth Distance (km) Brightness Sun altitude
Rises 20:33:32 0° 303° (WNW) 3,495 6.8 -24.9°
Reaches altitude 10° 20:36:24 10° 317° (NW) 2,670 5.8 -25.3°
Maximum altitude 20:41:30 25° 11° (N) 1,999 4.3 -26.0°
Enters shadow 20:46:27 13° 59° (ENE) 2,842 4.7 -26.6°
